Time,TemperatureF,DewpointF,PressureIn,WindDirection,WindDirectionDegrees,WindSpeedMPH,WindSpeedGustMPH,Humidity,HourlyPrecipIn,Conditions,Clouds,dailyrainin,SoftwareType,DateUTC
2013-08-23 00:07:00,83.5,71.6,0.00,SSE,157,2.0,4.9,61,0.00,,,-99.99,Homeseer,2013-08-23 04:07:00,
2013-08-23 00:17:00,83.5,68.4,0.00,East,90,4.3,4.3,53,0.00,,,-99.99,Homeseer,2013-08-23 04:17:00,
2013-08-23 00:27:00,83.7,68.6,0.00,South,180,2.7,2.9,53,0.00,,,-99.99,Homeseer,2013-08-23 04:27:00,
2013-08-23 00:37:00,83.7,67.7,0.00,SSE,157,2.0,2.0,51,0.00,,,-99.99,Homeseer,2013-08-23 04:37:00,
2013-08-23 00:47:00,83.5,67.1,0.00,SE,135,2.5,3.6,50,0.00,,,-99.99,Homeseer,2013-08-23 04:47:00,
2013-08-23 00:57:00,83.5,67.6,0.00,South,180,1.1,1.1,51,0.00,,,-99.99,Homeseer,2013-08-23 04:57:00,
2013-08-23 01:07:00,83.5,67.1,0.00,East,90,0.0,0.0,50,0.00,,,-99.99,Homeseer,2013-08-23 05:07:00,
2013-08-23 01:17:00,83.3,67.8,0.00,SSE,157,1.3,0.0,52,0.00,,,-99.99,Homeseer,2013-08-23 05:17:00,
2013-08-23 01:27:00,83.3,68.7,0.00,SSE,157,0.0,0.0,54,0.00,,,-99.99,Homeseer,2013-08-23 05:27:00,
2013-08-23 01:37:00,83.1,68.5,0.00,SSE,157,0.0,5.8,54,0.00,,,-99.99,Homeseer,2013-08-23 05:37:00,
2013-08-23 01:47:00,83.1,70.5,0.00,East,90,3.1,3.1,59,0.00,,,-99.99,Homeseer,2013-08-23 05:47:00,
2013-08-23 01:57:00,83.1,70.9,0.00,South,180,4.0,4.0,60,0.00,,,-99.99,Homeseer,2013-08-23 05:57:00,
2013-08-23 02:07:00,83.1,70.5,0.00,South,180,1.1,4.0,59,0.00,,,-99.99,Homeseer,2013-08-23 06:07:00,
2013-08-23 02:17:00,83.1,70.9,0.00,South,180,2.2,2.2,60,0.00,,,-99.99,Homeseer,2013-08-23 06:17:00,
2013-08-23 02:27:00,82.9,70.7,0.00,SSE,157,2.2,2.7,60,0.00,,,-99.99,Homeseer,2013-08-23 06:27:00,
2013-08-23 02:37:00,83.1,71.3,0.00,SSE,157,2.5,2.9,61,0.00,,,-99.99,Homeseer,2013-08-23 06:37:00,
2013-08-23 02:46:00,82.9,70.7,0.00,SSE,157,3.8,3.8,60,0.00,,,-99.99,Homeseer,2013-08-23 06:46:00,
2013-08-23 02:56:00,82.9,71.1,0.00,SE,135,3.8,7.2,61,0.00,,,-99.99,Homeseer,2013-08-23 06:56:00,
2013-08-23 03:06:00,82.9,70.7,0.00,SSE,157,3.8,3.8,60,0.00,,,-99.99,Homeseer,2013-08-23 07:06:00,
2013-08-23 03:16:00,82.9,71.5,0.00,SE,135,3.1,5.4,62,0.00,,,-99.99,Homeseer,2013-08-23 07:16:00,
2013-08-23 03:27:00,82.9,71.8,0.00,SSE,157,3.4,3.4,63,0.00,,,-99.99,Homeseer,2013-08-23 07:27:00,
2013-08-23 03:37:00,82.9,72.2,0.00,SE,135,3.6,3.6,64,0.00,,,-99.99,Homeseer,2013-08-23 07:37:00,
2013-08-23 03:47:00,82.9,72.2,0.00,SSE,157,2.5,6.0,64,0.00,,,-99.99,Homeseer,2013-08-23 07:47:00,
2013-08-23 03:57:00,82.9,71.8,0.00,SSE,157,1.6,0.0,63,0.00,,,-99.99,Homeseer,2013-08-23 07:57:00,
2013-08-23 04:07:00,82.9,72.9,0.00,North,0,2.0,2.0,66,0.00,,,-99.99,Homeseer,2013-08-23 08:07:00,
2013-08-23 04:17:00,82.8,72.5,0.00,North,0,3.8,3.8,65,0.00,,,-99.99,Homeseer,2013-08-23 08:17:00,
2013-08-23 04:27:00,82.8,72.5,0.00,ESE,112,2.0,0.0,65,0.00,,,-99.99,Homeseer,2013-08-23 08:27:00,
2013-08-23 04:37:00,82.8,71.7,0.00,SSE,157,3.1,3.1,63,0.00,,,-99.99,Homeseer,2013-08-23 08:37:00,
2013-08-23 04:47:00,82.6,70.8,0.00,SW,225,4.5,4.5,61,0.00,,,-99.99,Homeseer,2013-08-23 08:47:00,
2013-08-23 04:57:00,82.6,71.2,0.00,North,0,2.9,4.0,62,0.00,,,-99.99,Homeseer,2013-08-23 08:57:00,
2013-08-23 05:07:00,82.6,70.8,0.00,SSE,157,1.6,0.0,61,0.00,,,-99.99,Homeseer,2013-08-23 09:07:00,
2013-08-23 05:17:00,82.6,69.6,0.00,North,0,2.0,2.0,58,0.00,,,-99.99,Homeseer,2013-08-23 09:17:00,
2013-08-23 05:27:00,82.4,70.2,0.00,South,180,0.0,4.0,60,0.00,,,-99.99,Homeseer,2013-08-23 09:27:00,
2013-08-23 05:37:00,82.4,70.2,0.00,South,180,3.1,3.1,60,0.00,,,-99.99,Homeseer,2013-08-23 09:37:00,
2013-08-23 05:47:00,81.9,71.3,0.00,North,0,1.3,1.3,64,0.00,,,-99.99,Homeseer,2013-08-23 09:47:00,
2013-08-23 05:57:00,81.9,72.3,0.00,East,90,1.3,2.0,67,0.00,,,-99.99,Homeseer,2013-08-23 09:57:00,
2013-08-23 06:07:00,81.7,72.1,0.00,SSE,157,2.5,2.5,67,0.00,,,-99.99,Homeseer,2013-08-23 10:07:00,
2013-08-23 06:17:00,82.0,73.1,0.00,ESE,112,4.7,4.9,69,0.00,,,-99.99,Homeseer,2013-08-23 10:17:00,
2013-08-23 06:27:00,82.0,73.1,0.00,East,90,2.7,2.7,69,0.00,,,-99.99,Homeseer,2013-08-23 10:27:00,
2013-08-23 06:37:00,82.0,73.8,0.00,SSE,157,3.4,6.0,71,0.00,,,-99.99,Homeseer,2013-08-23 10:37:00,
2013-08-23 06:47:00,82.0,74.1,0.00,South,180,4.7,0.0,72,0.00,,,-99.99,Homeseer,2013-08-23 10:47:00,
2013-08-23 06:57:00,82.0,74.4,0.00,SE,135,2.2,0.0,73,0.00,,,-99.99,Homeseer,2013-08-23 10:57:00,
2013-08-23 07:07:00,82.2,74.3,0.00,ESE,112,1.1,0.0,72,0.00,,,-99.99,Homeseer,2013-08-23 11:07:00,
2013-08-23 07:17:00,82.2,72.9,0.00,North,0,2.2,3.4,68,0.00,,,-99.99,Homeseer,2013-08-23 11:17:00,
2013-08-23 07:27:00,82.6,72.6,0.00,ESE,112,2.9,2.9,66,0.00,,,-99.99,Homeseer,2013-08-23 11:27:00,
2013-08-23 07:37:00,82.8,72.5,0.00,SSE,157,1.6,2.7,65,0.00,,,-99.99,Homeseer,2013-08-23 11:37:00,
2013-08-23 07:47:00,83.3,73.6,0.00,North,0,2.0,7.2,67,0.00,,,-99.99,Homeseer,2013-08-23 11:47:00,
2013-08-23 07:57:00,83.5,73.5,0.00,SSE,157,3.8,4.9,66,0.00,,,-99.99,Homeseer,2013-08-23 11:57:00,
2013-08-23 08:07:00,83.7,73.3,0.00,SE,135,2.5,2.5,65,0.00,,,-99.99,Homeseer,2013-08-23 12:07:00,
2013-08-23 08:17:00,84.0,73.2,0.00,ESE,112,2.7,2.7,64,0.00,,,-99.99,Homeseer,2013-08-23 12:17:00,
2013-08-23 08:27:00,84.4,73.2,0.00,SSE,157,3.4,3.4,63,0.00,,,-99.99,Homeseer,2013-08-23 12:27:00,
2013-08-23 08:37:00,84.9,73.3,0.00,ESE,112,3.6,4.3,62,0.00,,,-99.99,Homeseer,2013-08-23 12:37:00,
2013-08-23 08:47:00,85.1,72.0,0.00,SE,135,2.5,2.5,58,0.00,,,-99.99,Homeseer,2013-08-23 12:47:00,
2013-08-23 08:57:00,85.5,71.9,0.00,South,180,3.1,3.1,57,0.00,,,-99.99,Homeseer,2013-08-23 12:57:00,
2013-08-23 09:07:00,86.2,72.1,0.00,North,0,3.4,4.7,56,0.00,,,-99.99,Homeseer,2013-08-23 13:07:00,
2013-08-23 09:17:00,86.4,71.5,0.00,SE,135,3.4,3.4,54,0.00,,,-99.99,Homeseer,2013-08-23 13:17:00,
2013-08-23 09:27:00,86.9,71.5,0.00,SE,135,3.1,3.8,53,0.00,,,-99.99,Homeseer,2013-08-23 13:27:00,
2013-08-23 09:37:00,86.9,70.2,0.00,ESE,112,2.7,5.6,50,0.00,,,-99.99,Homeseer,2013-08-23 13:37:00,
2013-08-23 09:47:00,87.3,70.1,0.00,SSE,157,2.5,2.5,49,0.00,,,-99.99,Homeseer,2013-08-23 13:47:00,
2013-08-23 09:57:00,87.1,69.4,0.00,ESE,112,4.7,4.7,48,0.00,,,-99.99,Homeseer,2013-08-23 13:57:00,
2013-08-23 10:07:00,87.6,68.9,0.00,SE,135,2.7,2.7,46,0.00,,,-99.99,Homeseer,2013-08-23 14:07:00,
2013-08-23 10:17:00,87.8,68.6,0.00,ESE,112,4.5,4.5,45,0.00,,,-99.99,Homeseer,2013-08-23 14:17:00,
2013-08-23 10:27:00,87.8,68.1,0.00,SSE,157,3.8,3.8,44,0.00,,,-99.99,Homeseer,2013-08-23 14:27:00,
2013-08-23 10:37:00,88.3,69.0,0.00,ESE,112,3.1,3.6,45,0.00,,,-99.99,Homeseer,2013-08-23 14:37:00,
2013-08-23 10:47:00,88.2,68.4,0.00,ESE,112,4.7,4.7,44,0.00,,,-99.99,Homeseer,2013-08-23 14:47:00,
2013-08-23 10:57:00,89.1,69.2,0.00,SSE,157,2.9,2.9,44,0.00,,,-99.99,Homeseer,2013-08-23 14:57:00,
2013-08-23 11:07:00,88.9,69.5,0.00,ESE,112,2.5,2.9,45,0.00,,,-99.99,Homeseer,2013-08-23 15:07:00,
2013-08-23 11:17:00,88.9,69.0,0.00,SSE,157,4.9,4.9,44,0.00,,,-99.99,Homeseer,2013-08-23 15:17:00,
2013-08-23 11:27:00,88.7,68.3,0.00,ESE,112,4.7,4.7,43,0.00,,,-99.99,Homeseer,2013-08-23 15:27:00,
2013-08-23 11:37:00,89.1,68.2,0.00,SSE,157,4.5,4.7,42,0.00,,,-99.99,Homeseer,2013-08-23 15:37:00,
2013-08-23 11:47:00,89.2,68.2,0.00,ESE,112,3.8,3.8,42,0.00,,,-99.99,Homeseer,2013-08-23 15:47:00,
2013-08-23 11:57:00,89.4,69.0,0.00,ESE,112,4.0,4.7,43,0.00,,,-99.99,Homeseer,2013-08-23 15:57:00,
2013-08-23 12:07:00,89.1,68.7,0.00,ESE,112,3.1,3.4,43,0.00,,,-99.99,Homeseer,2013-08-23 16:07:00,
2013-08-23 12:17:00,89.6,66.9,0.00,South,180,4.9,4.9,39,0.00,,,-99.99,Homeseer,2013-08-23 16:17:00,
2013-08-23 12:27:00,90.0,67.3,0.00,SE,135,4.3,4.3,39,0.00,,,-99.99,Homeseer,2013-08-23 16:27:00,
2013-08-23 12:37:00,90.1,67.4,0.00,ESE,112,4.5,4.5,39,0.00,,,-99.99,Homeseer,2013-08-23 16:37:00,
2013-08-23 12:47:00,89.6,66.9,0.00,North,0,4.5,6.0,39,0.00,,,-99.99,Homeseer,2013-08-23 16:47:00,
2013-08-23 12:57:00,89.8,67.7,0.00,ESE,112,3.6,4.3,40,0.00,,,-99.99,Homeseer,2013-08-23 16:57:00,
2013-08-23 13:07:00,90.1,67.9,0.00,SSE,157,4.0,5.8,40,0.00,,,-99.99,Homeseer,2013-08-23 17:07:00,
2013-08-23 13:17:00,90.7,69.0,0.00,South,180,3.8,3.8,41,0.00,,,-99.99,Homeseer,2013-08-23 17:17:00,
2013-08-23 13:27:00,90.0,67.3,0.00,SE,135,3.4,3.4,39,0.00,,,-99.99,Homeseer,2013-08-23 17:27:00,
2013-08-23 13:37:00,87.1,66.9,0.00,SE,135,6.9,7.2,43,0.00,,,-99.99,Homeseer,2013-08-23 17:37:00,
2013-08-23 13:47:00,85.1,70.3,0.00,South,180,2.9,2.9,54,1.14,,,-99.99,Homeseer,2013-08-23 17:47:00,
2013-08-23 13:57:00,86.7,70.9,0.00,SE,135,0.0,0.9,52,1.18,,,-99.99,Homeseer,2013-08-23 17:57:00,
2013-08-23 14:07:00,87.8,70.0,0.00,North,0,3.4,3.4,48,1.18,,,-99.99,Homeseer,2013-08-23 18:07:00,
2013-08-23 14:17:00,88.3,70.0,0.00,ESE,112,4.0,4.9,47,1.18,,,-99.99,Homeseer,2013-08-23 18:17:00,
2013-08-23 14:27:00,88.2,68.9,0.00,SSE,157,3.4,5.4,45,1.18,,,-99.99,Homeseer,2013-08-23 18:27:00,
2013-08-23 14:37:00,87.8,70.0,0.00,SE,135,3.1,4.0,48,1.18,,,-99.99,Homeseer,2013-08-23 18:37:00,
2013-08-23 14:47:00,88.0,70.2,0.00,ESE,112,4.3,4.3,48,1.18,,,-99.99,Homeseer,2013-08-23 18:47:00,
2013-08-23 14:57:00,88.2,70.4,0.00,SE,135,2.2,3.1,48,1.18,,,-99.99,Homeseer,2013-08-23 18:57:00,
2013-08-23 15:07:00,87.6,70.3,0.00,ESE,112,4.5,4.5,49,1.18,,,-99.99,Homeseer,2013-08-23 19:07:00,
2013-08-23 15:17:00,85.8,68.3,0.00,ESE,112,5.8,9.2,48,1.18,,,-99.99,Homeseer,2013-08-23 19:17:00,
2013-08-23 15:27:00,85.8,69.2,0.00,SE,135,6.0,10.5,50,1.18,,,-99.99,Homeseer,2013-08-23 19:27:00,
2013-08-23 15:37:00,84.2,66.3,0.00,South,180,3.1,8.5,47,1.18,,,-99.99,Homeseer,2013-08-23 19:37:00,
2013-08-23 15:47:00,84.2,66.8,0.00,South,180,2.2,4.0,48,1.18,,,-99.99,Homeseer,2013-08-23 19:47:00,
2013-08-23 15:57:00,83.5,67.1,0.00,ESE,112,0.9,3.1,50,0.03,,,-99.99,Homeseer,2013-08-23 19:57:00,
2013-08-23 16:07:00,84.0,70.5,0.00,East,90,0.0,0.0,57,0.03,,,-99.99,Homeseer,2013-08-23 20:07:00,
2013-08-23 16:17:00,84.0,71.7,0.00,ESE,112,3.1,3.1,60,0.03,,,-99.99,Homeseer,2013-08-23 20:17:00,
2013-08-23 16:27:00,84.2,71.5,0.00,East,90,3.6,3.6,59,0.03,,,-99.99,Homeseer,2013-08-23 20:27:00,
2013-08-23 16:37:00,84.0,70.5,0.00,East,90,2.9,3.4,57,0.03,,,-99.99,Homeseer,2013-08-23 20:37:00,
2013-08-23 16:47:00,84.4,69.7,0.00,ESE,112,1.3,2.5,54,0.03,,,-99.99,Homeseer,2013-08-23 20:47:00,
2013-08-23 16:57:00,84.6,70.7,0.00,SSE,157,2.2,2.5,56,0.03,,,-99.99,Homeseer,2013-08-23 20:57:00,
2013-08-23 17:07:00,84.4,70.1,0.00,SE,135,2.9,2.9,55,0.03,,,-99.99,Homeseer,2013-08-23 21:07:00,
2013-08-23 17:17:00,84.2,69.9,0.00,ESE,112,3.6,3.6,55,0.03,,,-99.99,Homeseer,2013-08-23 21:17:00,
2013-08-23 17:27:00,84.4,70.5,0.00,SSE,157,2.0,0.0,56,0.03,,,-99.99,Homeseer,2013-08-23 21:27:00,
2013-08-23 17:37:00,84.7,70.4,0.00,ESE,112,2.0,2.0,55,0.03,,,-99.99,Homeseer,2013-08-23 21:37:00,
2013-08-23 17:47:00,84.7,70.8,0.00,South,180,0.0,1.6,56,0.03,,,-99.99,Homeseer,2013-08-23 21:47:00,
2013-08-23 17:57:00,84.7,70.4,0.00,SE,135,2.7,0.0,55,0.03,,,-99.99,Homeseer,2013-08-23 21:57:00,
2013-08-23 18:07:00,84.9,70.5,0.00,North,0,0.9,0.0,55,0.00,,,-99.99,Homeseer,2013-08-23 22:07:00,
2013-08-23 18:17:00,84.9,70.1,0.00,North,0,0.0,0.0,54,0.00,,,-99.99,Homeseer,2013-08-23 22:17:00,
2013-08-23 18:27:00,84.7,69.5,0.00,SE,135,3.4,3.4,53,0.00,,,-99.99,Homeseer,2013-08-23 22:27:00,
2013-08-23 18:37:00,84.6,69.4,0.00,SSE,157,1.6,1.6,53,0.00,,,-99.99,Homeseer,2013-08-23 22:37:00,
2013-08-23 18:47:00,84.4,70.1,0.00,SE,135,2.5,2.5,55,0.00,,,-99.99,Homeseer,2013-08-23 22:47:00,
2013-08-23 18:57:00,84.6,70.7,0.00,South,180,2.0,2.0,56,0.00,,,-99.99,Homeseer,2013-08-23 22:57:00,
2013-08-23 19:07:00,84.6,71.5,0.00,South,180,0.0,0.0,58,0.00,,,-99.99,Homeseer,2013-08-23 23:07:00,
2013-08-23 19:17:00,84.2,70.7,0.00,East,90,1.1,1.1,57,0.00,,,-99.99,Homeseer,2013-08-23 23:17:00,
2013-08-23 19:27:00,84.0,70.9,0.00,SE,135,0.0,2.5,58,0.00,,,-99.99,Homeseer,2013-08-23 23:27:00,
2013-08-23 19:37:00,83.8,70.8,0.00,South,180,0.0,0.0,58,0.00,,,-99.99,Homeseer,2013-08-23 23:37:00,
2013-08-23 19:47:00,83.7,71.1,0.00,South,180,0.0,0.0,59,0.00,,,-99.99,Homeseer,2013-08-23 23:47:00,
2013-08-23 19:57:00,83.5,71.6,0.00,North,0,0.0,0.0,61,0.00,,,-99.99,Homeseer,2013-08-23 23:57:00,
2013-08-23 20:07:00,83.3,71.8,0.00,ESE,112,0.0,1.1,62,0.00,,,-99.99,Homeseer,2013-08-24 00:07:00,
2013-08-23 20:17:00,83.3,71.5,0.00,ESE,112,0.0,1.1,61,0.00,,,-99.99,Homeseer,2013-08-24 00:17:00,
2013-08-23 20:27:00,83.3,71.8,0.00,East,90,1.6,1.6,62,0.00,,,-99.99,Homeseer,2013-08-24 00:27:00,
2013-08-23 20:37:00,83.3,72.2,0.00,SSE,157,0.0,0.0,63,0.00,,,-99.99,Homeseer,2013-08-24 00:37:00,
2013-08-23 20:47:00,83.3,72.6,0.00,East,90,0.0,0.0,64,0.00,,,-99.99,Homeseer,2013-08-24 00:47:00,
2013-08-23 20:57:00,83.3,73.6,0.00,ESE,112,0.0,2.2,67,0.00,,,-99.99,Homeseer,2013-08-24 00:57:00,
2013-08-23 21:07:00,83.3,73.3,0.00,SE,135,1.6,2.7,66,0.00,,,-99.99,Homeseer,2013-08-24 01:07:00,
2013-08-23 21:17:00,83.3,72.9,0.00,North,0,1.1,0.0,65,0.00,,,-99.99,Homeseer,2013-08-24 01:17:00,
2013-08-23 21:27:00,83.3,72.6,0.00,ESE,112,0.0,1.6,64,0.00,,,-99.99,Homeseer,2013-08-24 01:27:00,
2013-08-23 21:37:00,83.3,72.6,0.00,SSE,157,2.9,2.9,64,0.00,,,-99.99,Homeseer,2013-08-24 01:37:00,
2013-08-23 21:47:00,83.3,72.6,0.00,South,180,2.9,2.9,64,0.00,,,-99.99,Homeseer,2013-08-24 01:47:00,
2013-08-23 21:57:00,83.3,72.6,0.00,SSE,157,3.4,4.7,64,0.00,,,-99.99,Homeseer,2013-08-24 01:57:00,
2013-08-23 22:07:00,83.3,72.6,0.00,ESE,112,2.7,2.7,64,0.00,,,-99.99,Homeseer,2013-08-24 02:07:00,
2013-08-23 22:17:00,83.3,72.2,0.00,SSE,157,5.4,5.4,63,0.00,,,-99.99,Homeseer,2013-08-24 02:17:00,
2013-08-23 22:27:00,83.5,72.4,0.00,ESE,112,2.0,2.0,63,0.00,,,-99.99,Homeseer,2013-08-24 02:27:00,
2013-08-23 22:37:00,83.5,70.1,0.00,SE,135,3.1,3.1,57,0.00,,,-99.99,Homeseer,2013-08-24 02:37:00,
2013-08-23 22:47:00,83.5,69.3,0.00,ESE,112,2.9,2.9,55,0.00,,,-99.99,Homeseer,2013-08-24 02:47:00,
2013-08-23 22:57:00,83.5,70.9,0.00,SSE,157,2.2,0.0,59,0.00,,,-99.99,Homeseer,2013-08-24 02:57:00,
2013-08-23 23:07:00,83.3,72.9,0.00,ESE,112,2.2,2.2,65,0.00,,,-99.99,Homeseer,2013-08-24 03:07:00,
2013-08-23 23:17:00,83.3,73.3,0.00,East,90,2.7,2.7,66,0.00,,,-99.99,Homeseer,2013-08-24 03:17:00,
2013-08-23 23:27:00,83.3,72.6,0.00,ESE,112,3.8,3.8,64,0.00,,,-99.99,Homeseer,2013-08-24 03:27:00,
2013-08-23 23:37:00,83.5,72.8,0.00,North,0,2.5,3.6,64,0.00,,,-99.99,Homeseer,2013-08-24 03:37:00,
2013-08-23 23:47:00,83.5,72.8,0.00,SSE,157,2.9,2.9,64,0.00,,,-99.99,Homeseer,2013-08-24 03:47:00,
2013-08-23 23:57:00,83.1,73.8,0.00,SSE,157,1.6,7.8,68,0.00,,,-99.99,Homeseer,2013-08-24 03:57:00,